Weather Roundup
Issued by NWS Chicago, IL

Home | Current Version | Previous Version | Graphics & Text | Print | Product List | Glossary On
Versions: 1 2 3 4 5 6 7 8 9 10 11 12 13 14 15 16 17 18 19 20 21 22 23 24 25 26 27 28 29 30 31 32 33 34 35 36 37 38 39 40 41 42 43 44 45 46 47 48 49 50
000
NZUS59 KLOT 171110
HRRLOT

CHICAGO AREA WEATHER ROUNDUP
NATIONAL WEATHER SERVICE CHICAGO/ROMEOVILLE IL
600 AM CDT WED SEP 17 2014

NOTE: "FAIR" INDICATES FEW OR NO CLOUDS BELOW 12,000 FEET WITH NO
SIGNIFICANT WEATHER AND/OR OBSTRUCTIONS TO VISIBILITY.

* THESE STATIONS ARE NOT UNDER NWS QUALITY CONTROL. THEY ALSO MAY NOT
  REPORT WEATHER SUCH AS PRECIPITATION OR FOG.

ILZ005-006-012>014-019>023-171200-
NORTHEAST ILLINOIS

CITY           SKY/WX    TMP DP  RH WIND       PRES   REMARKS
OHARE          PTCLDY    50  45  83 CALM      30.04S
MIDWAY         MOCLDY    51  45  79 SW3       30.05S
AURORA         PTCLDY    40  37  89 CALM      30.06R
LANSING*       PTCLDY    43  43  99 CALM      30.06R
JOLIET*        FOG       42  41  97 CALM      30.06S VSB 1/4
WAUKEGAN       CLEAR     44  43  96 CALM      30.04R FOG
DUPAGE AIRPORT PTCLDY    43  40  89 CALM      30.04S
WHEELING       PTCLDY    45  42  89 CALM      30.05S
KANKAKEE*      CLEAR     42  42  99 CALM      30.07R FOG
MORRIS*        PTCLDY    43  43 100 CALM      30.05S
LEWIS AIRPORT* PTCLDY    44  44 100 CALM      30.06R FOG
NORTHERLY IS     N/A     53  45  74 SW2         N/A
$$

WIZ051-052-058>065-066-070>072-171200-
SOUTHEAST WISCONSIN

CITY           SKY/WX    TMP DP  RH WIND       PRES   REMARKS
MILWAUKEE      PTCLDY    48  42  80 S3        30.04S
KENOSHA*       FOG       43  42  97 CALM      30.04S VSB 1/4
RACINE*        CLEAR     50  46  86 W5        30.05S
BURLINGTON     FOG       35  35 100 CALM      30.04S VSB 1/2
WAUKESHA       CLEAR     39  39 100 CALM      30.05R
WEST BEND      CLEAR     37  37 100 CALM      30.03S
$$

INZ001>003-010>013-019-020-171200-
NORTHWEST INDIANA

CITY           SKY/WX    TMP DP  RH WIND       PRES   REMARKS
GARY*          PTCLDY    45  43  93 VRB3      30.06S
MICHIGAN CITY* NOT AVBL
RENSSELAER*    NOT AVBL
VALPARAISO     FOG       41  40  96 CALM      30.07S VSB 1/4
$$

LMZ740>746-171200-
SOUTHERN LAKE MICHIGAN

STATION/POSITION TIME  SKY/WX   TEMP WIND        PRES    VSBY
                                AIR  DIR/SP/G
                 (UTC)          (F)  (DEG/KT/KT) (MB)    (MI)
HARRISON CRIB    1100            55  190/  8/  9   N/A
BURNHAM HARBOR   1100            53  210/  2/  4   N/A
CALUMET HARBOR   1100            51  190/  3/  4 1016.3S
BURNS HARBOR     NOT AVBL
MICHIGAN CITY    1100            50  130/ 10/ 12   N/A
$$

ABBREVIATIONS USED IN REMARKS
   TC - TEMPERATURE IN CELSIUS
  WCI - WIND CHILL INDEX
   HX - HEAT INDEX
  VSB - VISIBILITY
$$



USA.gov is the U.S. government's official web portal to all federal, state and local government web resources and services.